Regional Weather Roundup
Issued by NWS

Home | Current Version | Previous Version | Text Only | Print | Product List | Glossary On
Versions: 1 2 3 4 5 6 7 8 9 10 11 12 13 14 15 16 17 18 19 20 21 22 23 24 25 26 27 28 29 30 31 32 33 34 35 36 37 38 39 40 41 42 43 44 45 46
000
ASUS45 KBOI 270510
RWRID
WEATHER ROUNDUP FOR IDAHO
NATIONAL WEATHER SERVICE BOISE ID
1000 PM MST FRI DEC 26 2014

NOTE: "FAIR" INDICATES FEW OR NO CLOUDS BELOW 12000 FEET
WITH NO SIGNIFICANT WEATHER AND/OR OBSTRUCTIONS TO VISIBILITY

IDZ012-014-270600-
SOUTHWEST IDAHO


CITY           SKY/WX    TMP DP  RH WIND       PRES   REMARKS
BOISE          CLEAR     25  19  78 SW5       30.28R WCI  19
CALDWELL       MOCLDY    28  19  69 S6        30.32R WCI  22
MOUNTAIN HOME  CLEAR     26  21  82 N2        30.28R
$$

IDZ016-017-270600-
SOUTHCENTRAL IDAHO


CITY           SKY/WX    TMP DP  RH WIND       PRES   REMARKS
BURLEY         CLOUDY    27  20  75 W9        30.22R WCI  18
JEROME         CLEAR     21  18  88 SW7       30.23R WCI  12
TWIN FALLS     CLEAR     24  16  71 SW13      30.23R WCI  12
$$

IDZ019>023-270600-
SOUTHEAST IDAHO


CITY           SKY/WX    TMP DP  RH WIND       PRES   REMARKS
IDAHO FALLS    CLOUDY    17  15  92 SW10      30.19R WCI   5
POCATELLO      CLOUDY    22  19  89 SW10      30.21R WCI  11
REXBURG        CLOUDY    11   7  84 E3        30.18R
$$

IDZ006-010-011-018-031-032-270600-
CENTRAL IDAHO MOUNTAINS


CITY           SKY/WX    TMP DP  RH WIND       PRES   REMARKS
MCCALL         PTCLDY    14  11  87 CALM      30.19R
HAILEY         PTCLDY     9   3  78 W13       30.19R WCI  -7
STANLEY          N/A      2  -3  80 S3        30.14R
SALMON         PTCLDY    19  16  86 CALM      30.21F
CHALLIS        CLEAR      6   3  87 S5        30.19R WCI  -3
$$

IDZ002-004-006-007-026-270600-
NORTHERN IDAHO


CITY           SKY/WX    TMP DP  RH WIND       PRES   REMARKS
LEWISTON       CLEAR     31  24  75 CALM      30.31F
LOWELL           N/A     33  31  92 CALM      30.36R
COEUR D`ALENE  CLOUDY    27  25  93 CALM      30.26S VSB 1/2
MULLAN PASS    CLOUDY    18  13  80 CALM      30.08S
$$


USA.gov is the U.S. government's official web portal to all federal, state and local government web resources and services.